Regional Weather Roundup
Issued by NWS Sioux Falls, SD

Home | Current Version | Previous Version | Graphics & Text | Print | Product List | Glossary On
Versions: 1 2 3 4 5 6 7 8 9 10 11 12 13 14 15 16 17 18 19 20 21 22 23 24 25 26 27 28 29 30 31 32 33 34 35 36 37 38 39 40 41 42 43 44 45 46 47 48 49 50
000
ASUS43 KFSD 291510
RWRFSD

WEATHER ROUNDUP FOR SE SOUTH DAKOTA/SW MINNESOTA/NW IOWA
NATIONAL WEATHER SERVICE SIOUX FALLS SD
1000 AM CDT MON MAY 29 2017

NOTE: "FAIR" INDICATES FEW OR NO CLOUDS BELOW 12,000 FEET WITH NO
SIGNIFICANT WEATHER AND OR OBSTRUCTIONS TO VISIBILITY.


SDZ038>040-050-052>070-291600-
SOUTHEAST SOUTH DAKOTA

CITY           SKY/WX    TMP DP  RH WIND       PRES   REMARKS
BROOKINGS      CLOUDY    54  47  77 NW18      29.94R
CHAMBERLAIN    SUNNY     62  44  51 W17G26    30.05S
HURON          CLOUDY    58  45  62 NW21G28   29.99R
MADISON        PTSUNNY   55  50  82 NW21G28   29.96S
MITCHELL       SUNNY     60  44  55 NW24G31   30.01R
SIOUX FALLS    MOSUNNY   60  47  61 NW22      29.97R
WINNER         FAIR      61  44  53 N18G24    30.09R
$$

MNZ071-072-080-081-089-090-097-098-291600-
SOUTHWEST MINNESOTA

CITY           SKY/WX    TMP DP  RH WIND       PRES   REMARKS
FAIRMONT       CLOUDY    60  45  57 W14       29.89R
JACKSON        MOSUNNY   59  46  63 W14G22    29.91R
LUVERNE        MOSUNNY   59  43  55 NW22G30   29.95S
MARSHALL       CLOUDY    58  46  64 NW20      29.89S
MONTEVIDEO     PTSUNNY   54  50  87 N12G22    29.88R
PIPESTONE      CLOUDY    55  43  62 NW18      29.94R
REDWOOD FALLS  CLOUDY    58  46  64 NW15      29.87R
TRACY          CLOUDY    59  48  68 NW14      29.90S
WINDOM         MOSUNNY   61  46  59 W17       29.90S
WORTHINGTON    MOSUNNY   57  47  69 W21G26    29.93R
$$

IAZ001>003-012>014-020>022-031-032-NEZ013-014-SDZ071-291600-
NORTHWEST IOWA

CITY           SKY/WX    TMP DP  RH WIND       PRES   REMARKS
CHEROKEE       SUNNY     62  47  57 NW12G25   29.96S
DENISON        SUNNY     64  46  52 NW12G24   29.99R
ESTHERVILLE    PTSUNNY   60  47  61 NW18      29.90S
LE MARS        SUNNY     63  45  51 NW17G26   29.99R
ORANGE CITY    SUNNY     61  48  63 NW21      29.97R
SHELDON        SUNNY     63  43  48 W20G26    29.94R
SIOUX CITY     SUNNY     64  48  56 NW20G25   29.99S
SPENCER        SUNNY     62  48  60 W21G28    29.93R
STORM LAKE     SUNNY     63  43  48 NW21G30   29.96R
$$

ABBREVIATIONS USED IN REMARKS
   TC - TEMPERATURE IN CELSIUS
  WCI - WIND CHILL INDEX
   HX - HEAT INDEX
  VSB - VISIBILITY





USA.gov is the U.S. government's official web portal to all federal, state and local government web resources and services.